TimeCDT,TemperatureF,Dew PointF,Humidity,Sea Level PressureIn,VisibilityMPH,Wind Direction,Wind SpeedMPH,Gust SpeedMPH,PrecipitationIn,Events,Conditions,WindDirDegrees,DateUTC
12:51 AM,68.0,45.0,43,29.89,10.0,South,10.4,-,N/A,,Clear,190,2011-10-15 05:51:00
1:51 AM,66.9,45.0,45,29.91,10.0,South,9.2,-,N/A,,Clear,170,2011-10-15 06:51:00
2:51 AM,64.9,46.0,50,29.92,10.0,South,8.1,-,N/A,,Clear,190,2011-10-15 07:51:00
3:51 AM,62.1,46.0,56,29.93,10.0,Calm,Calm,-,N/A,,Clear,0,2011-10-15 08:51:00
4:51 AM,61.0,46.0,58,29.93,10.0,SSW,6.9,-,N/A,,Clear,200,2011-10-15 09:51:00
5:51 AM,62.1,45.0,53,29.95,10.0,Calm,Calm,-,N/A,,Clear,0,2011-10-15 10:51:00
6:51 AM,59.0,46.0,62,29.98,10.0,Calm,Calm,-,N/A,,Clear,0,2011-10-15 11:51:00
7:51 AM,59.0,46.9,64,30.01,10.0,SE,3.5,-,N/A,,Clear,130,2011-10-15 12:51:00
8:51 AM,62.1,50.0,65,30.04,10.0,ENE,5.8,-,N/A,,Clear,60,2011-10-15 13:51:00
9:51 AM,66.0,51.1,59,30.06,10.0,SE,3.5,-,N/A,,Clear,130,2011-10-15 14:51:00
10:51 AM,72.0,52.0,49,30.06,10.0,South,9.2,-,N/A,,Clear,190,2011-10-15 15:51:00
11:51 AM,77.0,51.8,41,30.11,10.0,South,8.1,-,N/A,,Clear,180,2011-10-15 16:51:00
12:51 PM,82.4,50.0,32,30.10,10.0,Variable,5.8,-,N/A,,Clear,0,2011-10-15 17:51:00
1:51 PM,84.0,50.0,31,30.01,10.0,Variable,3.5,-,N/A,,Clear,0,2011-10-15 18:51:00
2:51 PM,86.0,48.2,27,30.04,10.0,SW,5.8,-,N/A,,Clear,220,2011-10-15 19:51:00
3:51 PM,87.1,45.0,23,29.97,10.0,SSE,5.8,17.3,N/A,,Clear,150,2011-10-15 20:51:00
4:51 PM,88.0,46.0,23,29.96,10.0,SE,9.2,-,N/A,,Clear,140,2011-10-15 21:51:00
5:51 PM,87.1,43.0,21,29.95,10.0,SSE,6.9,-,N/A,,Clear,150,2011-10-15 22:51:00
6:51 PM,82.9,44.1,25,29.96,10.0,SE,4.6,-,N/A,,Clear,140,2011-10-15 23:51:00
7:51 PM,77.0,46.0,33,29.99,10.0,SE,5.8,-,N/A,,Clear,140,2011-10-16 00:51:00
8:51 PM,73.9,48.0,40,30.00,10.0,SSE,5.8,-,N/A,,Clear,160,2011-10-16 01:51:00
9:51 PM,70.0,48.0,46,30.02,10.0,South,5.8,-,N/A,,Clear,170,2011-10-16 02:51:00
10:51 PM,66.9,48.9,52,30.03,10.0,South,5.8,-,N/A,,Clear,170,2011-10-16 03:51:00
11:51 PM,64.4,48.2,56,30.08,10.0,South,4.6,-,N/A,,Clear,170,2011-10-16 04:51:00